Location: ?
(35.4214°N, 139.3011°E)
Time: 22:36:24
(UTC+00:00)

CZ-2C R/B - Pass Details

Date: 14 July 2020
Orbit: 640 x 704 km, 98.4° (Epoch: 10 August)

Event Time Altitude Azimuth Distance (km) Brightness Sun altitude
Rises 10:42:35 0° 14° (NNE) 3,099 7.4 -8.5°
Reaches altitude 10° 10:44:51 10° 16° (NNE) 2,176 6.6 -8.9°
Maximum altitude 10:49:38 76° 102° (ESE) 723 3.8 -9.7°
Drops below altitude 10° 10:54:20 10° 189° (S) 2,142 6.1 -10.5°
Sets 10:56:34 0° 190° (S) 3,047 6.8 -10.8°
